Year,Month,Day,Hour,Minute,Value (Times are PST for temperature in C)
2011,08,19,00,00,12.80
2011,08,19,00,01,12.80
2011,08,19,00,02,12.80
2011,08,19,00,03,12.80
2011,08,19,00,04,12.80
2011,08,19,00,05,12.70
2011,08,19,00,06,12.70
2011,08,19,00,07,12.70
2011,08,19,00,08,12.70
2011,08,19,00,09,12.70
2011,08,19,00,10,12.70
2011,08,19,00,11,12.60
2011,08,19,00,12,12.60
2011,08,19,00,13,12.60
2011,08,19,00,14,12.60
2011,08,19,00,15,12.60
2011,08,19,00,16,12.70
2011,08,19,00,17,12.70
2011,08,19,00,18,12.70
2011,08,19,00,19,12.70
2011,08,19,00,20,12.70
2011,08,19,00,21,12.70
2011,08,19,00,22,12.70
2011,08,19,00,23,12.80
2011,08,19,00,24,12.80
2011,08,19,00,25,12.80
2011,08,19,00,26,12.80
2011,08,19,00,27,12.70
2011,08,19,00,28,12.70
2011,08,19,00,29,12.70
2011,08,19,00,30,12.70
2011,08,19,00,31,12.70
2011,08,19,00,32,12.70
2011,08,19,00,33,12.70
2011,08,19,00,34,12.70
2011,08,19,00,35,12.70
2011,08,19,00,36,12.70
2011,08,19,00,37,12.70
2011,08,19,00,38,12.70
2011,08,19,00,39,12.70
2011,08,19,00,40,12.70
2011,08,19,00,41,12.70
2011,08,19,00,42,12.70
2011,08,19,00,43,12.70
2011,08,19,00,44,12.70
2011,08,19,00,45,12.80
2011,08,19,00,46,12.80
2011,08,19,00,47,12.70
2011,08,19,00,48,12.70
2011,08,19,00,49,12.70
2011,08,19,00,50,12.70
2011,08,19,00,51,12.70
2011,08,19,00,52,12.70
2011,08,19,00,53,12.70
2011,08,19,00,54,12.70
2011,08,19,00,55,12.60
2011,08,19,00,56,12.60
2011,08,19,00,57,12.60
2011,08,19,00,58,12.60
2011,08,19,00,59,12.60
2011,08,19,01,00,12.60
2011,08,19,01,01,12.50
2011,08,19,01,02,12.50
2011,08,19,01,03,12.50
2011,08,19,01,04,12.50
2011,08,19,01,05,12.40
2011,08,19,01,06,12.40
2011,08,19,01,07,12.40
2011,08,19,01,08,12.40
2011,08,19,01,09,12.30
2011,08,19,01,10,12.30
2011,08,19,01,11,12.30
2011,08,19,01,12,12.30
2011,08,19,01,13,12.30
2011,08,19,01,14,12.30
2011,08,19,01,15,12.30
2011,08,19,01,16,12.30
2011,08,19,01,17,12.20
2011,08,19,01,18,12.20
2011,08,19,01,19,12.20
2011,08,19,01,20,12.20
2011,08,19,01,21,12.10
2011,08,19,01,22,12.10
2011,08,19,01,23,12.10
2011,08,19,01,24,12.00
2011,08,19,01,25,12.00
2011,08,19,01,26,12.00
2011,08,19,01,27,12.00
2011,08,19,01,28,12.00
2011,08,19,01,29,11.90
2011,08,19,01,30,11.90
2011,08,19,01,31,11.90
2011,08,19,01,32,11.90
2011,08,19,01,33,11.90
2011,08,19,01,34,11.90
2011,08,19,01,35,11.90
2011,08,19,01,36,11.90
2011,08,19,01,37,11.80
2011,08,19,01,38,11.80
2011,08,19,01,39,11.80
2011,08,19,01,40,11.80
2011,08,19,01,41,11.80
2011,08,19,01,42,11.80
2011,08,19,01,43,11.90
2011,08,19,01,44,11.90
2011,08,19,01,45,11.90
2011,08,19,01,46,11.90
2011,08,19,01,47,11.90
2011,08,19,01,48,11.90
2011,08,19,01,49,11.90
2011,08,19,01,50,11.90
2011,08,19,01,51,11.90
2011,08,19,01,52,12.00
2011,08,19,01,53,12.00
2011,08,19,01,54,12.00
2011,08,19,01,55,12.00
2011,08,19,01,56,12.00
2011,08,19,01,57,12.10
2011,08,19,01,58,12.10
2011,08,19,01,59,12.10
2011,08,19,02,00,12.10
2011,08,19,02,01,12.10
2011,08,19,02,02,12.10
2011,08,19,02,03,12.10
2011,08,19,02,04,12.00
2011,08,19,02,05,12.00
2011,08,19,02,06,12.00
2011,08,19,02,07,12.00
2011,08,19,02,08,12.00
2011,08,19,02,09,12.00
2011,08,19,02,10,12.00
2011,08,19,02,11,12.00
2011,08,19,02,12,12.00
2011,08,19,02,13,12.00
2011,08,19,02,14,12.00
2011,08,19,02,15,12.00
2011,08,19,02,16,12.00
2011,08,19,02,17,12.00
2011,08,19,02,18,12.00
2011,08,19,02,19,12.00
2011,08,19,02,20,12.00
2011,08,19,02,21,12.00
2011,08,19,02,22,12.00
2011,08,19,02,23,12.00
2011,08,19,02,24,12.00
2011,08,19,02,25,12.00
2011,08,19,02,26,12.00
2011,08,19,02,27,12.00
2011,08,19,02,28,12.00
2011,08,19,02,29,12.00
2011,08,19,02,30,12.00
2011,08,19,02,31,12.00
2011,08,19,02,32,12.00
2011,08,19,02,33,12.00
2011,08,19,02,34,12.00
2011,08,19,02,35,12.00
2011,08,19,02,36,12.00
2011,08,19,02,37,12.00
2011,08,19,02,38,11.90
2011,08,19,02,39,11.90
2011,08,19,02,40,11.90
2011,08,19,02,41,11.90
2011,08,19,02,42,11.90
2011,08,19,02,43,11.80
2011,08,19,02,44,11.80
2011,08,19,02,45,11.80
2011,08,19,02,46,11.80
2011,08,19,02,47,11.80
2011,08,19,02,48,11.80
2011,08,19,02,49,11.80
2011,08,19,02,50,11.70
2011,08,19,02,51,11.70
2011,08,19,02,52,11.70
2011,08,19,02,53,11.70
2011,08,19,02,54,11.60
2011,08,19,02,55,11.60
2011,08,19,02,56,11.60
2011,08,19,02,57,11.60
2011,08,19,02,58,11.60
2011,08,19,02,59,11.60
2011,08,19,03,00,11.60
2011,08,19,03,01,11.50
2011,08,19,03,02,11.40
2011,08,19,03,03,11.40
2011,08,19,03,04,11.40
2011,08,19,03,05,11.40
2011,08,19,03,06,11.40
2011,08,19,03,07,11.40
2011,08,19,03,08,11.30
2011,08,19,03,09,11.30
2011,08,19,03,10,11.30
2011,08,19,03,11,11.30
2011,08,19,03,12,11.20
2011,08,19,03,13,11.20
2011,08,19,03,14,11.20
2011,08,19,03,15,11.20
2011,08,19,03,16,11.20
2011,08,19,03,17,11.20
2011,08,19,03,18,11.10
2011,08,19,03,19,11.10
2011,08,19,03,20,11.10
2011,08,19,03,21,11.10
2011,08,19,03,22,11.10
2011,08,19,03,23,11.10
2011,08,19,03,24,11.10
2011,08,19,03,25,11.10
2011,08,19,03,26,11.10
2011,08,19,03,27,11.10
2011,08,19,03,28,11.10
2011,08,19,03,29,11.10
2011,08,19,03,30,11.10
2011,08,19,03,31,11.10
2011,08,19,03,32,11.10
2011,08,19,03,33,11.10
2011,08,19,03,34,11.10
2011,08,19,03,35,11.10
2011,08,19,03,36,11.10
2011,08,19,03,37,11.10
2011,08,19,03,38,11.10
2011,08,19,03,39,11.10
2011,08,19,03,40,11.10
2011,08,19,03,41,11.20
2011,08,19,03,42,11.20
2011,08,19,03,43,11.20
2011,08,19,03,44,11.20
2011,08,19,03,45,11.20
2011,08,19,03,46,11.20
2011,08,19,03,47,11.30
2011,08,19,03,48,11.30
2011,08,19,03,49,11.30
2011,08,19,03,50,11.30
2011,08,19,03,51,11.30
2011,08,19,03,52,11.30
2011,08,19,03,53,11.30
2011,08,19,03,54,11.30
2011,08,19,03,55,11.30
2011,08,19,03,56,11.30
2011,08,19,03,57,11.30
2011,08,19,03,58,11.30
2011,08,19,03,59,11.20
2011,08,19,04,00,11.20
2011,08,19,04,01,11.20
2011,08,19,04,02,11.20
2011,08,19,04,03,11.20
2011,08,19,04,04,11.20
2011,08,19,04,05,11.20
2011,08,19,04,06,11.20
2011,08,19,04,07,11.20
2011,08,19,04,08,11.20
2011,08,19,04,09,11.20
2011,08,19,04,10,11.20
2011,08,19,04,11,11.20
2011,08,19,04,12,11.20
2011,08,19,04,13,11.20
2011,08,19,04,14,11.20
2011,08,19,04,15,11.20
2011,08,19,04,16,11.20
2011,08,19,04,17,11.20
2011,08,19,04,18,11.20
2011,08,19,04,19,11.20
2011,08,19,04,20,11.20
2011,08,19,04,21,11.20
2011,08,19,04,22,11.20
2011,08,19,04,23,11.20
2011,08,19,04,24,11.20
2011,08,19,04,25,11.20
2011,08,19,04,26,11.20
2011,08,19,04,27,11.20
2011,08,19,04,28,11.20
2011,08,19,04,29,11.20
2011,08,19,04,30,11.10
2011,08,19,04,31,11.10
2011,08,19,04,32,11.10
2011,08,19,04,33,11.10
2011,08,19,04,34,11.10
2011,08,19,04,35,11.10
2011,08,19,04,36,11.10
2011,08,19,04,37,11.10
2011,08,19,04,38,11.10
2011,08,19,04,39,11.10
2011,08,19,04,40,11.10
2011,08,19,04,41,11.10
2011,08,19,04,42,11.10
2011,08,19,04,43,11.00
2011,08,19,04,44,10.90
2011,08,19,04,45,10.90
2011,08,19,04,46,10.90
2011,08,19,04,47,10.90
2011,08,19,04,48,10.90
2011,08,19,04,49,10.90
2011,08,19,04,50,10.90
2011,08,19,04,51,10.90
2011,08,19,04,52,10.90
2011,08,19,04,53,10.90
2011,08,19,04,54,11.00
2011,08,19,04,55,11.10
2011,08,19,04,56,11.10
2011,08,19,04,57,11.10
2011,08,19,04,58,11.10
2011,08,19,04,59,11.10
2011,08,19,05,00,11.10
2011,08,19,05,01,11.10
2011,08,19,05,02,11.10
2011,08,19,05,03,11.10
2011,08,19,05,04,11.10
2011,08,19,05,05,11.10
2011,08,19,05,06,11.10
2011,08,19,05,07,11.10
2011,08,19,05,08,11.10
2011,08,19,05,09,11.10
2011,08,19,05,10,11.10
2011,08,19,05,11,11.00
2011,08,19,05,12,10.90
2011,08,19,05,13,10.90
2011,08,19,05,14,10.90
2011,08,19,05,15,10.90
2011,08,19,05,16,10.90
2011,08,19,05,17,10.90
2011,08,19,05,18,10.90
2011,08,19,05,19,10.80
2011,08,19,05,20,10.80
2011,08,19,05,21,10.80
2011,08,19,05,22,10.80
2011,08,19,05,23,10.70
2011,08,19,05,24,10.70
2011,08,19,05,25,10.70
2011,08,19,05,26,10.70
2011,08,19,05,27,10.70
2011,08,19,05,28,10.60
2011,08,19,05,29,10.60
2011,08,19,05,30,10.60
2011,08,19,05,31,10.60
2011,08,19,05,32,10.60
2011,08,19,05,33,10.60
2011,08,19,05,34,10.60
2011,08,19,05,35,10.60
2011,08,19,05,36,10.60
2011,08,19,05,37,10.60
2011,08,19,05,38,10.60
2011,08,19,05,39,10.60
2011,08,19,05,40,10.60
2011,08,19,05,41,10.60
2011,08,19,05,42,10.70
2011,08,19,05,43,10.70
2011,08,19,05,44,10.70
2011,08,19,05,45,10.70
2011,08,19,05,46,10.70
2011,08,19,05,47,10.70
2011,08,19,05,48,10.70
2011,08,19,05,49,10.80
2011,08,19,05,50,10.80
2011,08,19,05,51,10.80
2011,08,19,05,52,10.80
2011,08,19,05,53,10.90
2011,08,19,05,54,10.90
2011,08,19,05,55,10.90
2011,08,19,05,56,10.90
2011,08,19,05,57,10.90
2011,08,19,05,58,10.90
2011,08,19,05,59,11.00
2011,08,19,06,00,11.10
2011,08,19,06,01,11.10
2011,08,19,06,02,11.10
2011,08,19,06,03,11.10
2011,08,19,06,04,11.10
2011,08,19,06,05,11.00
2011,08,19,06,06,11.00
2011,08,19,06,07,10.90
2011,08,19,06,08,10.90
2011,08,19,06,09,11.00
2011,08,19,06,10,11.10
2011,08,19,06,11,11.10
2011,08,19,06,12,11.10
2011,08,19,06,13,11.20
2011,08,19,06,14,11.20
2011,08,19,06,15,11.30
2011,08,19,06,16,11.30
2011,08,19,06,17,11.40
2011,08,19,06,18,11.40
2011,08,19,06,19,11.40
2011,08,19,06,20,11.40
2011,08,19,06,21,11.50
2011,08,19,06,22,11.60
2011,08,19,06,23,11.60
2011,08,19,06,24,11.60
2011,08,19,06,25,11.70
2011,08,19,06,26,11.70
2011,08,19,06,27,11.70
2011,08,19,06,28,11.80
2011,08,19,06,29,11.80
2011,08,19,06,30,11.80
2011,08,19,06,31,11.80
2011,08,19,06,32,11.80
2011,08,19,06,33,11.80
2011,08,19,06,34,11.80
2011,08,19,06,35,11.80
2011,08,19,06,36,11.80
2011,08,19,06,37,11.80
2011,08,19,06,38,11.80
2011,08,19,06,39,11.80
2011,08,19,06,40,11.80
2011,08,19,06,41,11.80
2011,08,19,06,42,11.80
2011,08,19,06,43,11.80
2011,08,19,06,44,11.80
2011,08,19,06,45,11.80
2011,08,19,06,46,11.80
2011,08,19,06,47,11.80
2011,08,19,06,48,11.80
2011,08,19,06,49,11.80
2011,08,19,06,50,11.80
2011,08,19,06,51,11.80
2011,08,19,06,52,11.80
2011,08,19,06,53,11.80
2011,08,19,06,54,11.80
2011,08,19,06,55,11.80
2011,08,19,06,56,11.80
2011,08,19,06,57,11.80
2011,08,19,06,58,11.80
2011,08,19,06,59,11.80
2011,08,19,07,00,11.80
2011,08,19,07,01,11.70
2011,08,19,07,02,11.70
2011,08,19,07,03,11.70
2011,08,19,07,04,11.70
2011,08,19,07,05,11.70
2011,08,19,07,06,11.70
2011,08,19,07,07,11.70
2011,08,19,07,08,11.70
2011,08,19,07,09,11.70
2011,08,19,07,10,11.70
2011,08,19,07,11,11.70
2011,08,19,07,12,11.70
2011,08,19,07,13,11.70
2011,08,19,07,14,11.70
2011,08,19,07,15,11.70
2011,08,19,07,16,11.70
2011,08,19,07,17,11.70
2011,08,19,07,18,11.70
2011,08,19,07,19,11.70
2011,08,19,07,20,11.70
2011,08,19,07,21,11.70
2011,08,19,07,22,11.70
2011,08,19,07,23,11.80
2011,08,19,07,24,11.80
2011,08,19,07,25,11.80
2011,08,19,07,26,11.80
2011,08,19,07,27,11.90
2011,08,19,07,28,11.90
2011,08,19,07,29,11.90
2011,08,19,07,30,11.90
2011,08,19,07,31,12.00
2011,08,19,07,32,12.00
2011,08,19,07,33,12.00
2011,08,19,07,34,12.00
2011,08,19,07,35,12.10
2011,08,19,07,36,12.10
2011,08,19,07,37,12.20
2011,08,19,07,38,12.20
2011,08,19,07,39,12.30
2011,08,19,07,40,12.30
2011,08,19,07,41,12.30
2011,08,19,07,42,12.30
2011,08,19,07,43,12.40
2011,08,19,07,44,12.40
2011,08,19,07,45,12.50
2011,08,19,07,46,12.50
2011,08,19,07,47,12.60
2011,08,19,07,48,12.60
2011,08,19,07,49,12.70
2011,08,19,07,50,12.70
2011,08,19,07,51,12.70
2011,08,19,07,52,12.70
2011,08,19,07,53,12.80
2011,08,19,07,54,12.80
2011,08,19,07,55,12.80
2011,08,19,07,56,12.80
2011,08,19,07,57,12.90
2011,08,19,07,58,12.90
2011,08,19,07,59,12.90
2011,08,19,08,00,12.90
2011,08,19,08,01,12.90
2011,08,19,08,02,13.00
2011,08,19,08,03,13.00
2011,08,19,08,04,13.00
2011,08,19,08,05,13.10
2011,08,19,08,06,13.10
2011,08,19,08,07,13.20
2011,08,19,08,08,13.20
2011,08,19,08,09,13.30
2011,08,19,08,10,13.30
2011,08,19,08,11,13.40
2011,08,19,08,12,13.50
2011,08,19,08,13,13.60
2011,08,19,08,14,13.60
2011,08,19,08,15,13.70
2011,08,19,08,16,13.70
2011,08,19,08,17,13.80
2011,08,19,08,18,13.80
2011,08,19,08,19,13.90
2011,08,19,08,20,14.00
2011,08,19,08,21,14.00
2011,08,19,08,22,14.10
2011,08,19,08,23,14.10
2011,08,19,08,24,14.20
2011,08,19,08,25,14.20
2011,08,19,08,26,14.20
2011,08,19,08,27,14.30
2011,08,19,08,28,14.30
2011,08,19,08,29,14.40
2011,08,19,08,30,14.40
2011,08,19,08,31,14.50
2011,08,19,08,32,14.50
2011,08,19,08,33,14.60
2011,08,19,08,34,14.60
2011,08,19,08,35,14.70
2011,08,19,08,36,14.80
2011,08,19,08,37,14.80
2011,08,19,08,38,14.90
2011,08,19,08,39,15.00
2011,08,19,08,40,15.00
2011,08,19,08,41,15.10
2011,08,19,08,42,15.20
2011,08,19,08,43,15.20
2011,08,19,08,44,15.30
2011,08,19,08,45,15.30
2011,08,19,08,46,15.40
2011,08,19,08,47,15.50
2011,08,19,08,48,15.60
2011,08,19,08,49,15.70
2011,08,19,08,50,15.80
2011,08,19,08,51,15.80
2011,08,19,08,52,16.00
2011,08,19,08,53,16.10
2011,08,19,08,54,16.10
2011,08,19,08,55,16.20
2011,08,19,08,56,16.30
2011,08,19,08,57,16.40
2011,08,19,08,58,16.40
2011,08,19,08,59,16.60
2011,08,19,09,00,16.60
2011,08,19,09,01,16.70
2011,08,19,09,02,16.70
2011,08,19,09,03,16.80
2011,08,19,09,04,16.90
2011,08,19,09,05,16.90
2011,08,19,09,06,16.90
2011,08,19,09,07,17.00
2011,08,19,09,08,17.10
2011,08,19,09,09,17.10
2011,08,19,09,10,17.20
2011,08,19,09,11,17.20
2011,08,19,09,12,17.30
2011,08,19,09,13,17.30
2011,08,19,09,14,17.30
2011,08,19,09,15,17.40
2011,08,19,09,16,17.40
2011,08,19,09,17,17.40
2011,08,19,09,18,17.40
2011,08,19,09,19,17.40
2011,08,19,09,20,17.40
2011,08,19,09,21,17.40
2011,08,19,09,22,17.50
2011,08,19,09,23,17.50
2011,08,19,09,24,17.60
2011,08,19,09,25,17.60
2011,08,19,09,26,17.70
2011,08,19,09,27,17.80
2011,08,19,09,28,17.80
2011,08,19,09,29,17.90
2011,08,19,09,30,17.90
2011,08,19,09,31,18.00
2011,08,19,09,32,18.10
2011,08,19,09,33,18.10
2011,08,19,09,34,18.20
2011,08,19,09,35,18.20
2011,08,19,09,36,18.30
2011,08,19,09,37,18.40
2011,08,19,09,38,18.40
2011,08,19,09,39,18.50
2011,08,19,09,40,18.40
2011,08,19,09,41,18.40
2011,08,19,09,42,18.40
2011,08,19,09,43,18.40
2011,08,19,09,44,18.40
2011,08,19,09,45,18.40
2011,08,19,09,46,18.40
2011,08,19,09,47,18.40
2011,08,19,09,48,18.50
2011,08,19,09,49,18.50
2011,08,19,09,50,18.50
2011,08,19,09,51,18.60
2011,08,19,09,52,18.60
2011,08,19,09,53,18.70
2011,08,19,09,54,18.70
2011,08,19,09,55,18.80
2011,08,19,09,56,18.80
2011,08,19,09,57,18.90
2011,08,19,09,58,18.90
2011,08,19,09,59,19.00
2011,08,19,10,00,19.10
2011,08,19,10,01,19.10
2011,08,19,10,02,19.10
2011,08,19,10,03,19.10
2011,08,19,10,04,19.10
2011,08,19,10,05,19.10
2011,08,19,10,06,19.10
2011,08,19,10,07,19.10
2011,08,19,10,08,19.10
2011,08,19,10,09,19.10
2011,08,19,10,10,19.20
2011,08,19,10,11,19.20
2011,08,19,10,12,19.30
2011,08,19,10,13,19.30
2011,08,19,10,14,19.40
2011,08,19,10,15,19.40
2011,08,19,10,16,19.50
2011,08,19,10,17,19.60
2011,08,19,10,18,19.60
2011,08,19,10,19,19.50
2011,08,19,10,20,19.50
2011,08,19,10,21,19.60
2011,08,19,10,22,19.60
2011,08,19,10,23,19.70
2011,08,19,10,24,19.80
2011,08,19,10,25,19.90
2011,08,19,10,26,19.90
2011,08,19,10,27,20.00
2011,08,19,10,28,20.10
2011,08,19,10,29,20.10
2011,08,19,10,30,20.20
2011,08,19,10,31,20.20
2011,08,19,10,32,20.20
2011,08,19,10,33,20.30
2011,08,19,10,34,20.40
2011,08,19,10,35,20.50
2011,08,19,10,36,20.60
2011,08,19,10,37,20.60
2011,08,19,10,38,20.70
2011,08,19,10,39,20.60
2011,08,19,10,40,20.60
2011,08,19,10,41,20.50
2011,08,19,10,42,20.40
2011,08,19,10,43,20.30
2011,08,19,10,44,20.30
2011,08,19,10,45,20.30
2011,08,19,10,46,20.30
2011,08,19,10,47,20.30
2011,08,19,10,48,20.20
2011,08,19,10,49,20.20
2011,08,19,10,50,20.20
2011,08,19,10,51,20.20
2011,08,19,10,52,20.20
2011,08,19,10,53,20.20
2011,08,19,10,54,20.20
2011,08,19,10,55,20.20
2011,08,19,10,56,20.30
2011,08,19,10,57,20.40
2011,08,19,10,58,20.50
2011,08,19,10,59,20.50
2011,08,19,11,00,20.70
2011,08,19,11,01,20.70
2011,08,19,11,02,20.70
2011,08,19,11,03,20.70
2011,08,19,11,04,20.70
2011,08,19,11,05,20.70
2011,08,19,11,06,20.80
2011,08,19,11,07,20.80
2011,08,19,11,08,20.80
2011,08,19,11,09,20.80
2011,08,19,11,10,20.90
2011,08,19,11,11,21.00
2011,08,19,11,12,21.10
2011,08,19,11,13,21.10
2011,08,19,11,14,21.10
2011,08,19,11,15,21.10
2011,08,19,11,16,21.00
2011,08,19,11,17,21.00
2011,08,19,11,18,21.00
2011,08,19,11,19,21.00
2011,08,19,11,20,21.00
2011,08,19,11,21,21.00
2011,08,19,11,22,21.00
2011,08,19,11,23,21.00
2011,08,19,11,24,21.00
2011,08,19,11,25,21.00
2011,08,19,11,26,21.00
2011,08,19,11,27,21.00
2011,08,19,11,28,21.00
2011,08,19,11,29,20.90
2011,08,19,11,30,21.00
2011,08,19,11,31,21.00
2011,08,19,11,32,21.00
2011,08,19,11,33,21.00
2011,08,19,11,34,20.90
2011,08,19,11,35,20.90
2011,08,19,11,36,20.80
2011,08,19,11,37,20.80
2011,08,19,11,38,20.80
2011,08,19,11,39,20.90
2011,08,19,11,40,20.90
2011,08,19,11,41,21.00
2011,08,19,11,42,21.10
2011,08,19,11,43,21.30
2011,08,19,11,44,21.40
2011,08,19,11,45,21.50
2011,08,19,11,46,21.70
2011,08,19,11,47,21.80
2011,08,19,11,48,21.90
2011,08,19,11,49,22.00
2011,08,19,11,50,22.00
2011,08,19,11,51,22.10
2011,08,19,11,52,22.10
2011,08,19,11,53,22.00
2011,08,19,11,54,21.90
2011,08,19,11,55,21.80
2011,08,19,11,56,21.60
2011,08,19,11,57,21.60
2011,08,19,11,58,21.50
2011,08,19,11,59,21.40
2011,08,19,12,00,21.40
2011,08,19,12,01,21.30
2011,08,19,12,02,21.30
2011,08,19,12,03,21.30
2011,08,19,12,04,21.40
2011,08,19,12,05,21.50
2011,08,19,12,06,21.60
2011,08,19,12,07,21.70
2011,08,19,12,08,21.80
2011,08,19,12,09,21.90
2011,08,19,12,10,22.00
2011,08,19,12,11,22.00
2011,08,19,12,12,22.10
2011,08,19,12,13,22.20
2011,08,19,12,14,22.30
2011,08,19,12,15,22.40
2011,08,19,12,16,22.40
2011,08,19,12,17,22.40
2011,08,19,12,18,22.40
2011,08,19,12,19,22.40
2011,08,19,12,20,22.40
2011,08,19,12,21,22.50
2011,08,19,12,22,22.50
2011,08,19,12,23,22.50
2011,08,19,12,24,22.50
2011,08,19,12,25,22.50
2011,08,19,12,26,22.50
2011,08,19,12,27,22.50
2011,08,19,12,28,22.50
2011,08,19,12,29,22.50
2011,08,19,12,30,22.60
2011,08,19,12,31,22.60
2011,08,19,12,32,22.70
2011,08,19,12,33,22.60
2011,08,19,12,34,22.70
2011,08,19,12,35,22.70
2011,08,19,12,36,22.70
2011,08,19,12,37,22.60
2011,08,19,12,38,22.60
2011,08,19,12,39,22.70
2011,08,19,12,40,22.70
2011,08,19,12,41,22.70
2011,08,19,12,42,22.70
2011,08,19,12,43,22.60
2011,08,19,12,44,22.60
2011,08,19,12,45,22.50
2011,08,19,12,46,22.50
2011,08,19,12,47,22.60
2011,08,19,12,48,22.60
2011,08,19,12,49,22.60
2011,08,19,12,50,22.70
2011,08,19,12,51,22.60
2011,08,19,12,52,22.70
2011,08,19,12,53,22.70
2011,08,19,12,54,22.70
2011,08,19,12,55,22.60
2011,08,19,12,56,22.50
2011,08,19,12,57,22.50
2011,08,19,12,58,22.40
2011,08,19,12,59,22.50
2011,08,19,13,00,22.50
2011,08,19,13,01,22.60
2011,08,19,13,02,22.70
2011,08,19,13,03,22.70
2011,08,19,13,04,22.70
2011,08,19,13,05,22.80
2011,08,19,13,06,22.80
2011,08,19,13,07,22.90
2011,08,19,13,08,22.80
2011,08,19,13,09,22.90
2011,08,19,13,10,22.90
2011,08,19,13,11,22.90
2011,08,19,13,12,23.00
2011,08,19,13,13,23.10
2011,08,19,13,14,23.20
2011,08,19,13,15,23.20
2011,08,19,13,16,23.30
2011,08,19,13,17,23.30
2011,08,19,13,18,23.30
2011,08,19,13,19,23.30
2011,08,19,13,20,23.30
2011,08,19,13,21,23.20
2011,08,19,13,22,23.20
2011,08,19,13,23,23.20
2011,08,19,13,24,23.20
2011,08,19,13,25,23.30
2011,08,19,13,26,23.30
2011,08,19,13,27,23.30
2011,08,19,13,28,23.30
2011,08,19,13,29,23.40
2011,08,19,13,30,23.40
2011,08,19,13,31,23.40
2011,08,19,13,32,23.40
2011,08,19,13,33,23.40
2011,08,19,13,34,23.40
2011,08,19,13,35,23.60
2011,08,19,13,36,23.60
2011,08,19,13,37,23.70
2011,08,19,13,38,23.70
2011,08,19,13,39,23.70
2011,08,19,13,40,23.70
2011,08,19,13,41,23.60
2011,08,19,13,42,23.60
2011,08,19,13,43,23.50
2011,08,19,13,44,23.40
2011,08,19,13,45,23.30
2011,08,19,13,46,23.30
2011,08,19,13,47,23.30
2011,08,19,13,48,23.30
2011,08,19,13,49,23.30
2011,08,19,13,50,23.30
2011,08,19,13,51,23.30
2011,08,19,13,52,23.30
2011,08,19,13,53,23.30
2011,08,19,13,54,23.40
2011,08,19,13,55,23.40
2011,08,19,13,56,23.50
2011,08,19,13,57,23.60
2011,08,19,13,58,23.70
2011,08,19,13,59,23.70
2011,08,19,14,00,23.70
2011,08,19,14,01,23.70
2011,08,19,14,02,23.70
2011,08,19,14,03,23.80
2011,08,19,14,04,23.90
2011,08,19,14,05,24.00
2011,08,19,14,06,24.10
2011,08,19,14,07,24.20
2011,08,19,14,08,24.20
2011,08,19,14,09,24.20
2011,08,19,14,10,24.20
2011,08,19,14,11,24.20
2011,08,19,14,12,24.30
2011,08,19,14,13,24.30
2011,08,19,14,14,24.30
2011,08,19,14,15,24.30
2011,08,19,14,16,24.30
2011,08,19,14,17,24.30
2011,08,19,14,18,24.30
2011,08,19,14,19,24.40
2011,08,19,14,20,24.40
2011,08,19,14,21,24.40
2011,08,19,14,22,24.30
2011,08,19,14,23,24.30
2011,08,19,14,24,24.30
2011,08,19,14,25,24.40
2011,08,19,14,26,24.50
2011,08,19,14,27,24.50
2011,08,19,14,28,24.60
2011,08,19,14,29,24.60
2011,08,19,14,30,24.70
2011,08,19,14,31,24.70
2011,08,19,14,32,24.80
2011,08,19,14,33,24.80
2011,08,19,14,34,24.80
2011,08,19,14,35,24.70
2011,08,19,14,36,24.60
2011,08,19,14,37,24.60
2011,08,19,14,38,24.70
2011,08,19,14,39,24.70
2011,08,19,14,40,24.70
2011,08,19,14,41,24.70
2011,08,19,14,42,24.60
2011,08,19,14,43,24.60
2011,08,19,14,44,24.50
2011,08,19,14,45,24.40
2011,08,19,14,46,24.40
2011,08,19,14,47,24.30
2011,08,19,14,48,24.30
2011,08,19,14,49,24.30
2011,08,19,14,50,24.30
2011,08,19,14,51,24.20
2011,08,19,14,52,24.20
2011,08,19,14,53,24.20
2011,08,19,14,54,24.20
2011,08,19,14,55,24.20
2011,08,19,14,56,24.10
2011,08,19,14,57,24.10
2011,08,19,14,58,24.10
2011,08,19,14,59,24.00
2011,08,19,15,00,23.90
2011,08,19,15,01,24.00
2011,08,19,15,02,24.10
2011,08,19,15,03,24.20
2011,08,19,15,04,24.30
2011,08,19,15,05,24.40
2011,08,19,15,06,24.50
2011,08,19,15,07,24.60
2011,08,19,15,08,24.70
2011,08,19,15,09,24.70
2011,08,19,15,10,24.70
2011,08,19,15,11,24.80
2011,08,19,15,12,24.80
2011,08,19,15,13,24.90
2011,08,19,15,14,24.80
2011,08,19,15,15,24.70
2011,08,19,15,16,24.70
2011,08,19,15,17,24.70
2011,08,19,15,18,24.80
2011,08,19,15,19,24.80
2011,08,19,15,20,24.80
2011,08,19,15,21,24.90
2011,08,19,15,22,24.90
2011,08,19,15,23,25.00
2011,08,19,15,24,25.00
2011,08,19,15,25,25.10
2011,08,19,15,26,25.10
2011,08,19,15,27,25.10
2011,08,19,15,28,25.00
2011,08,19,15,29,25.00
2011,08,19,15,30,25.00
2011,08,19,15,31,25.00
2011,08,19,15,32,25.10
2011,08,19,15,33,25.10
2011,08,19,15,34,25.10
2011,08,19,15,35,25.10
2011,08,19,15,36,25.20
2011,08,19,15,37,25.20
2011,08,19,15,38,25.20
2011,08,19,15,39,25.10
2011,08,19,15,40,25.10
2011,08,19,15,41,24.90
2011,08,19,15,42,24.90
2011,08,19,15,43,24.90
2011,08,19,15,44,24.90
2011,08,19,15,45,24.90
2011,08,19,15,46,24.90
2011,08,19,15,47,25.00
2011,08,19,15,48,25.10
2011,08,19,15,49,25.10
2011,08,19,15,50,25.10
2011,08,19,15,51,25.00
2011,08,19,15,52,25.10
2011,08,19,15,53,25.00
2011,08,19,15,54,24.90
2011,08,19,15,55,24.90
2011,08,19,15,56,24.90
2011,08,19,15,57,24.90
2011,08,19,15,58,24.90
2011,08,19,15,59,24.90
2011,08,19,16,00,24.90
2011,08,19,16,01,25.00
2011,08,19,16,02,25.00
2011,08,19,16,03,25.00
2011,08,19,16,04,25.10
2011,08,19,16,05,25.00
2011,08,19,16,06,25.00
2011,08,19,16,07,25.00
2011,08,19,16,08,25.00
2011,08,19,16,09,25.00
2011,08,19,16,10,24.90
2011,08,19,16,11,24.80
2011,08,19,16,12,24.70
2011,08,19,16,13,24.60
2011,08,19,16,14,24.50
2011,08,19,16,15,24.50
2011,08,19,16,16,24.40
2011,08,19,16,17,24.40
2011,08,19,16,18,24.30
2011,08,19,16,19,24.30
2011,08,19,16,20,24.20
2011,08,19,16,21,24.20
2011,08,19,16,22,24.10
2011,08,19,16,23,24.10
2011,08,19,16,24,24.10
2011,08,19,16,25,24.00
2011,08,19,16,26,23.90
2011,08,19,16,27,23.80
2011,08,19,16,28,23.70
2011,08,19,16,29,23.70
2011,08,19,16,30,23.60
2011,08,19,16,31,23.60
2011,08,19,16,32,23.60
2011,08,19,16,33,23.50
2011,08,19,16,34,23.40
2011,08,19,16,35,23.40
2011,08,19,16,36,23.30
2011,08,19,16,37,23.30
2011,08,19,16,38,23.30
2011,08,19,16,39,23.30
2011,08,19,16,40,23.30
2011,08,19,16,41,23.30
2011,08,19,16,42,23.30
2011,08,19,16,43,23.20
2011,08,19,16,44,23.20
2011,08,19,16,45,23.10
2011,08,19,16,46,23.10
2011,08,19,16,47,23.10
2011,08,19,16,48,23.00
2011,08,19,16,49,22.90
2011,08,19,16,50,22.90
2011,08,19,16,51,22.90
2011,08,19,16,52,22.90
2011,08,19,16,53,22.80
2011,08,19,16,54,22.80
2011,08,19,16,55,22.80
2011,08,19,16,56,22.80
2011,08,19,16,57,22.70
2011,08,19,16,58,22.70
2011,08,19,16,59,22.70
2011,08,19,17,00,22.70
2011,08,19,17,01,22.70
2011,08,19,17,02,22.70
2011,08,19,17,03,22.70
2011,08,19,17,04,22.60
2011,08,19,17,05,22.60
2011,08,19,17,06,22.60
2011,08,19,17,07,22.60
2011,08,19,17,08,22.60
2011,08,19,17,09,22.60
2011,08,19,17,10,22.50
2011,08,19,17,11,22.50
2011,08,19,17,12,22.50
2011,08,19,17,13,22.50
2011,08,19,17,14,22.40
2011,08,19,17,15,22.40
2011,08,19,17,16,22.40
2011,08,19,17,17,22.30
2011,08,19,17,18,22.30
2011,08,19,17,19,22.30